[[{"header":{"parameterUnit":"m.s-1","parameterCategory":1,"la1":30.2991,"la2":30.254,"lo1":-89.0895,"lo2":-89.0444,"dy":0.0017,"dx":0.0017,"nx":28,"ny":28,"refTime":"2025-08-12T21:00:00:Z","depth":0,"parameterNumber":2,"parameterNumberName":"U-component_of_WINDS"},"data":[0,0,0,0,0,0,0,0,0,0,0,0,0,0,0,0,0,0,0,0,0,0,0,0,0,0,0,0,0,0,0,0,0,0,0,0,0,0,0,0,0,0,0,0,0,0,0,0,0,0,0,0,0,0,0,0,0,0,-0.1261,-0.1262,0,-0.1384,-0.1385,-0.1387,-0.1453,-0.1453,-0.1453,-0.1454,-0.1581,-0.1584,-0.1587,0,0,0,0,0,0,0,0,0,0,0,0,0,-0.1083,-0.1086,-0.1261,-0.1262,-0.1264,-0.1384,-0.1385,-0.1387,-0.1453,-0.1453,-0.1454,-0.1454,-0.158,-0.1584,-0.1588,0,0,0,0,0,0,0,0,0,0,0,0,0,-0.1178,-0.1087,-0.126,-0.1311,-0.1317,-0.1383,-0.1385,-0.1387,-0.1453,-0.1453,-0.1454,-0.1454,-0.1579,-0.1583,-0.1588,-0.1614,0,0,-0.1603,-0.1605,0,0,0,0,0,0,0,0,-0.1173,-0.1185,-0.1302,-0.1308,-0.1314,-0.1403,-0.1369,-0.1463,-0.1453,-0.1401,-0.1454,-0.1454,-0.1522,-0.1531,-0.1554,-0.162,-0.1625,-0.1604,-0.1607,-0.1609,-0.161,0,0,0,0,0,0,0,-0.1166,-0.118,-0.131,-0.1304,-0.1311,-0.1328,-0.1342,-0.1388,-0.1459,-0.1406,-0.1411,-0.1425,-0.1525,-0.1549,-0.1558,-0.1627,-0.1603,-0.1608,-0.1611,-0.1613,-0.1718,-0.1718,0,0,0,0,0,0,-0.1151,-0.1174,-0.1306,-0.1313,-0.1243,-0.1331,-0.1346,-0.1375,-0.1459,-0.1472,-0.1424,-0.1427,-0.1541,-0.1552,-0.1562,-0.1597,-0.1609,-0.1613,-0.1616,-0.1719,-0.1718,-0.1718,0,0,0,0,0,0,-0.1147,-0.1162,-0.1301,-0.1245,-0.1264,-0.1334,-0.1365,-0.1377,-0.1401,-0.1473,-0.1486,-0.1436,-0.1541,-0.1555,-0.16,-0.1602,-0.1615,-0.162,-0.1719,-0.1718,-0.1718,-0.1667,0,0,0,0,0,0,-0.1142,-0.116,-0.1171,-0.1245,-0.1266,-0.1336,-0.1365,-0.1379,-0.1409,-0.1414,-0.1487,-0.1499,-0.1543,-0.1592,-0.1605,-0.1609,-0.1624,-0.1719,-0.1719,-0.1718,-0.1668,-0.1665,-0.1661,0,0,0,0,0,-0.1135,-0.1153,-0.1171,-0.1187,-0.1281,-0.1336,-0.1349,-0.1399,-0.1409,-0.142,-0.1466,-0.1497,-0.16,-0.1596,-0.1611,-0.1617,-0.1719,-0.1719,-0.1718,-0.167,-0.1665,-0.1661,0,0,0,0,0,0,-0.1079,-0.1163,-0.1185,-0.1227,-0.1274,-0.1347,-0.1363,-0.1392,-0.1438,-0.1441,-0.1501,-0.1516,-0.1555,-0.1591,-0.1585,-0.1645,-0.1662,-0.1665,-0.1621,-0.1617,-0.1613,-0.1604,-0.1628,0,0,0,0,0,-0.1071,-0.1108,-0.118,-0.121,-0.1232,-0.1293,-0.1319,-0.1353,-0.1404,-0.1425,-0.1474,-0.1523,-0.1566,-0.1593,-0.1637,-0.1673,-0.169,-0.1684,-0.1681,-0.1678,-0.1679,-0.1699,-0.1698,-0.1717,-0.1717,-0.1717,0,0,-0.1056,-0.1107,-0.1127,-0.12,-0.124,-0.1277,-0.131,-0.1349,-0.1376,-0.1431,-0.1476,-0.1513,-0.1571,-0.1611,-0.1631,-0.1642,-0.1677,-0.1677,-0.1674,-0.1678,-0.1699,-0.1697,-0.1695,-0.1717,-0.1717,-0.1717,0,0,-0.1047,-0.1089,-0.1118,-0.1157,-0.1217,-0.1257,-0.1264,-0.1333,-0.1359,-0.1405,-0.1446,-0.148,-0.1554,-0.1593,-0.1623,-0.1625,-0.1655,-0.1638,-0.162,-0.1639,-0.1637,-0.1636,-0.1636,-0.1635,-0.1639,-0.1639,-0.1639,0,-0.1021,-0.1079,-0.1129,-0.1165,-0.1195,-0.1245,-0.1274,-0.1309,-0.1381,-0.1401,-0.1411,-0.1503,-0.1546,-0.1595,-0.1595,-0.1618,-0.1627,-0.163,-0.1633,-0.1633,-0.1632,-0.1633,-0.1633,-0.1637,-0.1637,-0.1637,-0.1637,0,-0.1043,-0.1082,-0.1098,-0.1164,-0.1196,-0.1228,-0.1283,-0.131,-0.134,-0.1378,-0.1423,-0.1476,-0.153,-0.1544,-0.1575,-0.1597,-0.1601,-0.1622,-0.164,-0.1627,-0.1628,-0.1629,-0.1633,-0.1634,-0.1635,-0.1635,0,0,-0.1004,-0.1096,-0.1101,-0.1131,-0.1199,-0.1231,-0.1264,-0.1316,-0.1337,-0.1384,-0.1413,-0.1473,-0.1491,-0.1524,-0.156,-0.1576,-0.1573,-0.1594,-0.1597,-0.1588,-0.1599,-0.1583,-0.1583,-0.1593,-0.1593,-0.1593,-0.1594,0,-0.1005,-0.1067,-0.1113,-0.1157,-0.1193,-0.1239,-0.1268,-0.1313,-0.1349,-0.1384,-0.1425,-0.1466,-0.1487,-0.1508,-0.1526,-0.1569,-0.1576,-0.157,-0.162,-0.1621,-0.1604,-0.1584,-0.1568,-0.1566,-0.1595,-0.1595,-0.1595,0,-0.1015,-0.1059,-0.1106,-0.1169,-0.1185,-0.1211,-0.1261,-0.1295,-0.1346,-0.1371,-0.1406,-0.1442,-0.1478,-0.1492,-0.1543,-0.1538,-0.1561,-0.1585,-0.1586,-0.1593,-0.1607,-0.159,-0.1567,-0.1567,-0.1597,-0.1597,-0.1597,0,-0.0981,-0.1052,-0.1089,-0.1113,-0.1187,-0.1203,-0.1235,-0.1286,-0.1314,-0.1358,-0.1376,-0.1424,-0.145,-0.1486,-0.1533,-0.1539,-0.1578,-0.1597,-0.1599,-0.1598,-0.1606,-0.1605,-0.1586,-0.1621,-0.1621,-0.1621,-0.1621,0,-0.0978,-0.1005,-0.1074,-0.1097,-0.1128,-0.118,-0.1209,-0.1245,-0.1289,-0.132,-0.1362,-0.139,-0.145,-0.1484,-0.1521,-0.1557,-0.1568,-0.1589,-0.1599,-0.1585,-0.1583,-0.1602,-0.1603,-0.1621,-0.1621,-0.1621,-0.1621,0,-0.0946,-0.0994,-0.1037,-0.1102,-0.1119,-0.1139,-0.1195,-0.1219,-0.1256,-0.1294,-0.1305,-0.1364,-0.1407,-0.1457,-0.1516,-0.154,-0.1572,-0.1587,-0.1555,-0.156,-0.156,-0.1559,-0.1553,-0.1554,-0.1587,-0.1587,-0.1586,0,-0.094,-0.0962,-0.1029,-0.1052,-0.1081,-0.1118,-0.1146,-0.1196,-0.1223,-0.1281,-0.1298,-0.1343,-0.1382,-0.1447,-0.1495,-0.154,-0.1556,-0.155,-0.1563,-0.1548,-0.1555,-0.1553,-0.1555,-0.1547,-0.1547,-0.1546,-0.1546,0,-0.0925,-0.0947,-0.0986,-0.1031,-0.1063,-0.1101,-0.1142,-0.1158,-0.1217,-0.1245,-0.1288,-0.1318,-0.1377,-0.1421,-0.1471,-0.1504,-0.1534,-0.1541,-0.1544,-0.1531,-0.1511,-0.1521,-0.1545,-0.1541,-0.1542,-0.1542,-0.1542,-0.1542,-0.0907,-0.0927,-0.0977,-0.1017,-0.1052,-0.1088,-0.1113,-0.1152,-0.1189,-0.1241,-0.1268,-0.131,-0.1358,-0.1429,-0.146,-0.1493,-0.1504,-0.1508,-0.151,-0.151,-0.1505,-0.1505,-0.1503,-0.1503,-0.1503,-0.1503,-0.1503,0,-0.0894,-0.0927,-0.0963,-0.1018,-0.1049,-0.1073,-0.1118,-0.1143,-0.1179,-0.1221,-0.1258,-0.1306,-0.1349,-0.1399,-0.1444,-0.1461,-0.1476,-0.1471,-0.147,-0.1477,-0.1494,-0.1486,-0.1458,-0.1458,-0.1458,-0.1458,-0.1458,-0.1458,-0.089,-0.0926,-0.0953,-0.1006,-0.1039,-0.108,-0.1103,-0.1136,-0.117,-0.1222,-0.1257,-0.1288,-0.1333,-0.1382,-0.1421,-0.1435,-0.1449,-0.144,-0.1458,-0.1472,-0.1476,-0.148,-0.1473,-0.1443,-0.1443,-0.1438,-0.1438,-0.1438]},{"header":{"parameterUnit":"m.s-1","parameterCategory":1,"la1":30.2991,"la2":30.254,"lo1":-89.0895,"lo2":-89.0444,"dy":0.0017,"dx":0.0017,"nx":28,"ny":28,"refTime":"2025-08-12T21:00:00:Z","depth":0,"parameterNumber":3,"parameterNumberName":"V-component_of_WINDS"},"data":[0,0,0,0,0,0,0,0,0,0,0,0,0,0,0,0,0,0,0,0,0,0,0,0,0,0,0,0,0,0,0,0,0,0,0,0,0,0,0,0,0,0,0,0,0,0,0,0,0,0,0,0,0,0,0,0,0,0,-0.7781,-0.7778,0,-0.7498,-0.7495,-0.7492,-0.7368,-0.7368,-0.7369,-0.7369,-0.7061,-0.7053,-0.7044,0,0,0,0,0,0,0,0,0,0,0,0,0,-0.8196,-0.8189,-0.7781,-0.7778,-0.7774,-0.7499,-0.7495,-0.7491,-0.7368,-0.7368,-0.7369,-0.7369,-0.7064,-0.7054,-0.7044,0,0,0,0,0,0,0,0,0,0,0,0,0,-0.7974,-0.8187,-0.7782,-0.768,-0.7668,-0.7499,-0.7495,-0.749,-0.7367,-0.7368,-0.7369,-0.7369,-0.7067,-0.7055,-0.7042,-0.6948,0,0,-0.7003,-0.6997,0,0,0,0,0,0,0,0,-0.7987,-0.7959,-0.7698,-0.7687,-0.7673,-0.7469,-0.7528,-0.7308,-0.7367,-0.7481,-0.7369,-0.737,-0.7195,-0.7172,-0.7117,-0.6934,-0.6921,-0.7001,-0.6994,-0.6988,-0.6984,0,0,0,0,0,0,0,-0.8003,-0.797,-0.7668,-0.7695,-0.7679,-0.7642,-0.7611,-0.7486,-0.7337,-0.7471,-0.7461,-0.7431,-0.7188,-0.713,-0.7109,-0.6916,-0.7002,-0.699,-0.6982,-0.6977,-0.6638,-0.6637,0,0,0,0,0,0,-0.8037,-0.7984,-0.7677,-0.766,-0.7836,-0.7634,-0.76,-0.7534,-0.7338,-0.7309,-0.743,-0.7426,-0.7151,-0.7124,-0.7097,-0.6972,-0.6988,-0.6976,-0.6969,-0.6639,-0.6638,-0.6636,0,0,0,0,0,0,-0.8047,-0.8011,-0.7689,-0.7819,-0.7776,-0.7626,-0.7553,-0.7528,-0.7469,-0.7308,-0.7279,-0.7399,-0.7151,-0.7115,-0.6987,-0.696,-0.697,-0.6958,-0.6641,-0.6639,-0.6637,-0.6724,0,0,0,0,0,0,-0.8059,-0.8015,-0.7983,-0.782,-0.7769,-0.7589,-0.7551,-0.7522,-0.7449,-0.7441,-0.727,-0.7243,-0.7149,-0.7007,-0.6974,-0.6942,-0.6948,-0.6642,-0.664,-0.6638,-0.6723,-0.6726,-0.6728,0,0,0,0,0,-0.8074,-0.8015,-0.7982,-0.7945,-0.7727,-0.7588,-0.7558,-0.7457,-0.7448,-0.741,-0.7306,-0.7248,-0.6969,-0.6995,-0.6957,-0.6921,-0.6643,-0.664,-0.6638,-0.6722,-0.6725,-0.6728,0,0,0,0,0,0,-0.8173,-0.7992,-0.7953,-0.7841,-0.7732,-0.7568,-0.7518,-0.7464,-0.735,-0.7346,-0.7218,-0.7181,-0.7062,-0.6978,-0.701,-0.6818,-0.6801,-0.679,-0.6878,-0.6879,-0.6882,-0.6903,-0.6938,0,0,0,0,0,-0.8183,-0.8092,-0.7936,-0.7851,-0.7799,-0.7669,-0.7604,-0.7536,-0.7415,-0.7366,-0.7252,-0.7132,-0.7017,-0.6943,-0.6828,-0.671,-0.6669,-0.6666,-0.6669,-0.6672,-0.6663,-0.6591,-0.6587,-0.6627,-0.6627,-0.6627,0,0,-0.82,-0.809,-0.8039,-0.7869,-0.7776,-0.7678,-0.763,-0.7529,-0.7454,-0.7348,-0.7222,-0.7134,-0.699,-0.6867,-0.6806,-0.6793,-0.6643,-0.6668,-0.6672,-0.6661,-0.6587,-0.6584,-0.658,-0.6625,-0.6625,-0.6626,0,0,-0.8181,-0.8091,-0.801,-0.7919,-0.7781,-0.7694,-0.7675,-0.7519,-0.7458,-0.733,-0.7249,-0.7153,-0.6959,-0.686,-0.6784,-0.6726,-0.6667,-0.6692,-0.6703,-0.6634,-0.6631,-0.6627,-0.6604,-0.6597,-0.6684,-0.6684,-0.6685,0,-0.8218,-0.8075,-0.7973,-0.7878,-0.7803,-0.7709,-0.7622,-0.7537,-0.7366,-0.7314,-0.7303,-0.7056,-0.6952,-0.6802,-0.6789,-0.6731,-0.67,-0.671,-0.6641,-0.6636,-0.6631,-0.6607,-0.6599,-0.6688,-0.6688,-0.6687,-0.6687,0,-0.8125,-0.8026,-0.7976,-0.782,-0.7739,-0.7648,-0.7528,-0.7457,-0.7395,-0.7308,-0.7175,-0.7049,-0.6906,-0.6865,-0.6801,-0.6704,-0.67,-0.6667,-0.6646,-0.6633,-0.6608,-0.6598,-0.6694,-0.6692,-0.6691,-0.669,0,0,-0.816,-0.7951,-0.7934,-0.7861,-0.7702,-0.7619,-0.7522,-0.7388,-0.7328,-0.7212,-0.7123,-0.6961,-0.6929,-0.6843,-0.6766,-0.6706,-0.6665,-0.6678,-0.6673,-0.6678,-0.6546,-0.6571,-0.6563,-0.6625,-0.6623,-0.6621,-0.6557,0,-0.8119,-0.7947,-0.7853,-0.7718,-0.7622,-0.753,-0.7444,-0.7334,-0.7249,-0.715,-0.7053,-0.6939,-0.6907,-0.6854,-0.6791,-0.6684,-0.6636,-0.6687,-0.6535,-0.6531,-0.6574,-0.655,-0.6576,-0.6522,-0.6547,-0.6545,-0.6544,0,-0.8047,-0.794,-0.7797,-0.7647,-0.7603,-0.7529,-0.7397,-0.7306,-0.7176,-0.7117,-0.7022,-0.6947,-0.6833,-0.6823,-0.6662,-0.6699,-0.6631,-0.6568,-0.6564,-0.6544,-0.6536,-0.6527,-0.6502,-0.6494,-0.6528,-0.6529,-0.653,0,-0.8085,-0.7903,-0.7794,-0.7735,-0.7557,-0.7507,-0.7429,-0.7301,-0.7225,-0.7107,-0.7056,-0.6925,-0.6852,-0.6749,-0.6637,-0.6641,-0.6486,-0.6467,-0.6429,-0.6432,-0.6399,-0.6402,-0.6361,-0.6359,-0.636,-0.636,-0.636,0,-0.8048,-0.7963,-0.7809,-0.7742,-0.7642,-0.7531,-0.7434,-0.7348,-0.7234,-0.7144,-0.7054,-0.6969,-0.6829,-0.6725,-0.6636,-0.6514,-0.6482,-0.6427,-0.6404,-0.6434,-0.6441,-0.6386,-0.6386,-0.6357,-0.6358,-0.6358,-0.6359,0,-0.8073,-0.7967,-0.7841,-0.7685,-0.7644,-0.7577,-0.7439,-0.7367,-0.7278,-0.7164,-0.713,-0.6988,-0.6861,-0.674,-0.6568,-0.6508,-0.6385,-0.6356,-0.6431,-0.6418,-0.6386,-0.639,-0.6306,-0.6288,-0.6302,-0.6302,-0.6302,0,-0.8056,-0.7989,-0.7827,-0.7763,-0.7689,-0.7587,-0.7511,-0.7397,-0.732,-0.7166,-0.7111,-0.6978,-0.6866,-0.6666,-0.6543,-0.641,-0.6375,-0.6355,-0.6354,-0.6386,-0.6371,-0.6376,-0.6367,-0.6357,-0.6357,-0.6358,-0.6358,0,-0.8035,-0.7986,-0.7883,-0.7761,-0.7674,-0.7571,-0.7464,-0.7415,-0.7279,-0.7196,-0.7068,-0.6982,-0.6808,-0.6676,-0.6529,-0.6441,-0.6374,-0.636,-0.6343,-0.6372,-0.6418,-0.639,-0.6435,-0.6362,-0.6361,-0.6361,-0.6361,-0.6361,-0.8036,-0.7972,-0.7848,-0.7735,-0.7644,-0.7546,-0.7471,-0.7373,-0.7267,-0.7121,-0.7058,-0.6928,-0.6794,-0.6591,-0.6504,-0.6396,-0.638,-0.6358,-0.6351,-0.6347,-0.6352,-0.6438,-0.6368,-0.6368,-0.6368,-0.6368,-0.6368,0,-0.8009,-0.7925,-0.7823,-0.7679,-0.7588,-0.7541,-0.7419,-0.7345,-0.7234,-0.7118,-0.7011,-0.6861,-0.6732,-0.66,-0.6461,-0.6399,-0.6365,-0.6366,-0.6368,-0.6348,-0.6375,-0.6402,-0.6396,-0.6396,-0.6396,-0.6396,-0.6396,-0.6396,-0.7984,-0.7873,-0.7809,-0.7649,-0.7563,-0.744,-0.7374,-0.7281,-0.7188,-0.7028,-0.6922,-0.6839,-0.6714,-0.6565,-0.6442,-0.6406,-0.6357,-0.6367,-0.6321,-0.6348,-0.6347,-0.6346,-0.637,-0.6358,-0.6358,-0.6303,-0.6303,-0.6302]}]]